Location: Quebec
(46.8000°N, 71.2500°W)
Time: 22:49:35
(UTC-04:00)

Vanguard 3 - Visible Passes

Search period start: 17 July 2018 00:00
Search period end: 27 July 2018 00:00
Orbit: 508 x 3264 km, 33.3° (Epoch: 17 July)

Date Brightness Start Highest point End Pass type
(mag) Time Alt. Az. Time Alt. Az. Time Alt. Az.
17 Jul 8.8 22:58:18 10° WSW 23:02:32 17° SSW 23:02:49 17° SSW visible
18 Jul 8.7 21:42:15 10° WSW 21:49:19 26° SSW 21:53:05 14° SSE visible
19 Jul 8.8 22:41:40 10° WSW 22:46:33 18° SSW 22:47:54 17° SSW visible
20 Jul 9.0 21:25:15 10° WSW 21:33:18 28° SSW 21:38:07 12° SE visible
21 Jul 9.0 22:24:57 10° WSW 22:30:30 19° SSW 22:32:54 15° S visible
22 Jul 9.2 21:08:08 10° WSW 21:17:12 29° SSW 21:22:58 10° SE visible
23 Jul 9.2 22:08:07 10° WSW 22:14:21 19° SW 22:17:53 13° S visible
24 Jul 9.4 20:50:57 10° WSW 21:00:59 30° SSW 21:07:20 10° SE visible
25 Jul 9.5 21:51:13 10° WSW 21:58:05 19° SW 22:02:54 10° S visible
